Weather History for PHLI - March, 2012

Change the Weather History Date:

Thursday, March 8, 2012

  Actual Average Record
Temperature  
Mean Temperature 73 °F 72 °F  
Max Temperature 76 °F 78 °F 85 °F (1960)
Min Temperature 69 °F 66 °F 56 °F (1955)
Degree Days  
Heating Degree Days 0 0  
Month to date heating degree days 0 0  
Since 1 July heating degree days 0 0  
Cooling Degree Days 8 7  
Month to date cooling degree days 53 56  
Year to date cooling degree days 553 451  
Growing Degree Days 22 (Base 50)    
Moisture  
Dew Point 59 °F    
Average Humidity 63    
Maximum Humidity 73    
Minimum Humidity 53    
Precipitation  
Precipitation T in 0.15 in 1.54 in (1967)
Month to date precipitation 13.87 1.17  
Year to date precipitation 27.08 8.08  
Snow  
Snow 0.00 in - - ()
Month to date snowfall 0.0  
Since 1 July snowfall 0.0  
Snow Depth 0.00 in    
Sea Level Pressure  
Sea Level Pressure 30.09 in    
Wind  
Wind Speed 23 mph (NE)    
Max Wind Speed 29 mph    
Max Gust Speed 35 mph    
Visibility 10 miles    
Events      
T = Trace of Precipitation, MM = Missing Value Source: NWS Daily Summary

Daily Weather History Graph

Daily Weather History Graph

Search for Another Location

Airport or City:

Trip Planner

Search our weather history database for the weather conditions in past years. The results will help you decide how hot, cold, wet, or windy it might be!

Date:

Astronomy

Mar. 08, 2012 Rise Set
Actual Time 6:51 AM HST 6:44 PM HST
Civil Twilight 6:29 AM HST 7:06 PM HST
Nautical Twilight 6:03 AM HST 7:32 PM HST
Astronomical Twilight 5:37 AM HST 7:58 PM HST
Moon 7:30 PM HST (3/8) 6:52 AM HST (3/8)
Length of Visible Light 12h 37m
Length of Day
11h 52m
Full, 100% of the Moon is Illuminated
Mar 8
Full
Mar 14
Last Quarter
Mar 22
New
Mar 30
First Quarter
Apr 6
Full

Hourly Weather History & Observations

Time (HST) Temp. Dew Point Humidity Pressure Visibility Wind Dir Wind Speed Gust Speed Precip Events Conditions
12:09 AM 69.8 °F 60.8 °F 73% 30.11 in 10.0 mi NNE 21.9 mph 28.8 mph 0.00 in   Overcast
12:38 AM 69.8 °F 60.8 °F 73% 30.10 in 10.0 mi NNE 20.7 mph - 0.00 in   Overcast
12:53 AM 70.0 °F 60.1 °F 71% 30.09 in 10.0 mi NNE 20.7 mph 28.8 mph 0.00 in   Overcast
1:53 AM 70.0 °F 60.1 °F 71% 30.09 in 10.0 mi NE 19.6 mph - N/A   Overcast
2:13 AM 69.8 °F 60.8 °F 73% 30.09 in 10.0 mi NNE 20.7 mph 26.5 mph N/A   Overcast
2:53 AM 69.1 °F 59.0 °F 70% 30.07 in 10.0 mi NNE 21.9 mph - N/A   Mostly Cloudy
3:53 AM 69.1 °F 60.1 °F 73% 30.06 in 10.0 mi NNE 21.9 mph - N/A   Overcast
4:53 AM 69.1 °F 59.0 °F 70% 30.07 in 10.0 mi NNE 19.6 mph - N/A   Mostly Cloudy
5:53 AM 69.1 °F 59.0 °F 70% 30.08 in 10.0 mi NNE 20.7 mph 27.6 mph N/A   Overcast
6:53 AM 69.1 °F 55.9 °F 63% 30.10 in 10.0 mi NNE 17.3 mph - N/A   Overcast
7:53 AM 71.1 °F 55.9 °F 59% 30.12 in 10.0 mi NNE 23.0 mph - N/A   Overcast
8:53 AM 73.0 °F 55.0 °F 53% 30.12 in 10.0 mi NNE 26.5 mph 32.2 mph N/A   Scattered Clouds
9:53 AM 73.0 °F 57.9 °F 59% 30.13 in 10.0 mi NNE 25.3 mph 31.1 mph N/A   Mostly Cloudy
10:53 AM 73.0 °F 55.9 °F 55% 30.14 in 10.0 mi NNE 21.9 mph 31.1 mph N/A   Overcast
11:53 AM 75.0 °F 60.1 °F 60% 30.13 in 10.0 mi NE 27.6 mph 34.5 mph N/A   Mostly Cloudy
12:53 PM 75.9 °F 59.0 °F 56% 30.11 in 10.0 mi NNE 25.3 mph 32.2 mph N/A   Scattered Clouds
1:53 PM 75.0 °F 59.0 °F 57% 30.09 in 10.0 mi NE 24.2 mph 33.4 mph N/A   Partly Cloudy
2:53 PM 73.9 °F 57.0 °F 55% 30.07 in 10.0 mi NE 25.3 mph 33.4 mph N/A   Scattered Clouds
3:53 PM 72.0 °F 59.0 °F 64% 30.07 in 10.0 mi NNE 23.0 mph 31.1 mph 0.00 in   Mostly Cloudy
4:53 PM 73.9 °F 57.9 °F 57% 30.06 in 10.0 mi NNE 25.3 mph 31.1 mph N/A   Scattered Clouds
5:53 PM 71.1 °F 57.9 °F 63% 30.07 in 10.0 mi NNE 25.3 mph - N/A   Clear
6:53 PM 71.1 °F 57.9 °F 63% 30.09 in 10.0 mi NNE 21.9 mph 31.1 mph N/A   Mostly Cloudy
7:53 PM 71.1 °F 60.1 °F 68% 30.09 in 10.0 mi NE 25.3 mph 29.9 mph N/A   Mostly Cloudy
8:53 PM 71.1 °F 60.1 °F 68% 30.09 in 10.0 mi NE 21.9 mph 29.9 mph N/A   Overcast
9:53 PM 71.1 °F 61.0 °F 70% 30.09 in 10.0 mi ENE 23.0 mph 32.2 mph N/A   Overcast
10:53 PM 71.1 °F 61.0 °F 70% 30.09 in 10.0 mi NE 23.0 mph 28.8 mph N/A   Overcast
11:53 PM 71.1 °F 61.0 °F 70% 30.08 in 10.0 mi East 23.0 mph 29.9 mph 0.00 in   Overcast